Location: Nora Springs Health Care Center
(43.1427°N, 93.0044°W)
Time: 04:46:57
(UTC+00:00)

Daily predictions for brighter satellites

Satellite Brightness Start Highest point End
(mag) Time Altitude Azimuth Time Altitude Azimuth Time Altitude Azimuth
Okean 2 Rocket 3.4 00:01:02 10° SSE 00:05:17 45° E 00:09:35 10° NNE
SKYMED 2 3.6 00:03:37 10° NNE 00:07:54 55° E 00:12:09 10° S
Cosmos 2263 Rocket 3.0 00:07:58 10° SSE 00:12:48 30° ESE 00:15:27 21° ENE
Cosmos 2098 Rocket 4.0 00:07:50 10° SSE 00:13:45 47° E 00:19:06 10° NNE
Cosmos 1814 Rocket 4.1 00:10:20 10° N 00:15:23 49° ENE 00:20:27 10° SE
Cosmos 2285 Rocket 3.9 00:09:24 10° SSW 00:15:41 86° ESE 00:22:01 10° NNE
Cosmos 2074 Rocket 4.1 00:09:44 10° N 00:15:53 54° ENE 00:22:01 10° SSE
Landsat 7 3.9 00:11:25 10° SE 00:15:54 48° ENE 00:20:26 10° N
USA 281 3.4 00:12:10 10° NE 00:18:32 49° ESE 00:24:51 10° S
Cosmos 2184 Rocket 4.1 00:12:40 10° N 00:18:50 54° ENE 00:24:54 10° SSE
USA 308 3.8 00:19:40 10° NW 00:19:47 11° NW 00:19:47 11° NW
Cosmos 2227 Rocket 2.1 00:15:51 10° SSW 00:21:29 82° ESE 00:27:11 10° NNE
Cosmos 2297 Rocket 3.0 00:16:07 10° SW 00:21:37 51° WNW 00:27:09 10° NNE
ATLAS CENTAUR R/B 2.4 00:17:07 10° WSW 00:21:39 50° NW 00:23:39 22° NNE
MOS 1-B Rocket 4.0 00:19:25 10° SSE 00:25:50 59° ENE 00:31:32 10° N
IGS 5A 4.0 00:22:38 10° S 00:26:36 59° W 00:30:37 10° NNW
Tiangong 0.3 00:30:13 10° S 00:31:22 13° SSE 00:31:22 13° SSE
CZ-4C R/B 3.5 00:26:36 10° NNW 00:33:02 38° NE 00:36:14 28° E
SL-16 R/B 2.3 00:29:35 10° NNW 00:35:07 50° ENE 00:38:09 25° SE
GEOS 3 Rocket 4.2 00:30:57 12° NNE 00:35:33 55° NW 00:40:32 10° WSW
USA 307 4.4 00:33:43 10° S 00:35:01 17° SSE 00:35:01 17° SSE
Cosmos 2237 Rocket 3.2 00:31:55 10° NW 00:37:22 48° WSW 00:42:48 10° S
Cosmos 2151 Rocket 3.8 00:34:07 10° SSW 00:38:28 68° W 00:42:50 10° N
Cosmos 968 Rocket 4.0 00:33:47 10° SSW 00:38:48 59° WNW 00:43:52 10° NNE
YAOGAN 11 4.0 00:37:21 10° NNE 00:41:53 77° ESE 00:46:23 10° S
Helios 1B rocket 4.3 00:46:01 16° N 00:46:01 16° N 00:46:55 10° N
SPOT 1/Viking Rocket 3.9 00:43:15 40° ENE 00:43:29 40° ENE 00:48:18 10° N
Okean 1 Rocket 2.9 00:43:01 10° S 00:47:23 88° ESE 00:51:50 10° N
Cosmos 2219 3.1 00:42:09 10° SSW 00:47:49 68° ESE 00:50:55 28° NE
YAOGAN 1 2.4 00:44:51 10° SSE 00:49:07 79° ENE 00:53:24 10° N
Cosmos 304 Rocket 4.4 00:45:07 10° S 00:48:33 37° SE 00:48:33 37° SE
COSMO-SKYMED 1 3.7 00:51:46 10° N 00:55:53 44° WNW 01:00:01 10° SW
Cosmos 381 Rocket 4.4 00:52:46 10° NNW 00:59:14 80° ENE 01:05:14 12° SSE
SJ 16-02 3.4 01:01:59 10° WSW 01:05:36 26° WNW 01:09:15 10° N
USA 234 3.8 01:02:10 24° NE 01:05:56 51° NNW 01:12:12 10° WSW
NOSS 3-1 (C) 2.9 01:03:18 10° SW 01:08:06 83° NW 01:09:23 53° NNE
BlueWalker 3 4.2 01:06:06 10° NW 01:07:53 16° NNW 01:07:53 16° NNW
Cosmos 2154 Rocket 4.2 01:05:38 10° NNW 01:11:59 72° W 01:18:15 10° S
NOSS 3-1 (A) 4.1 01:08:42 10° S 01:11:05 28° S 01:11:05 28° S
USA 305 3.8 01:13:58 10° WSW 01:16:57 41° WNW 01:16:57 41° WNW
ATLAS 3B R/B 3.7 01:12:17 10° S 01:16:22 31° SSE 01:16:22 31° SSE
ACS3 Solar Sail 1.9 01:22:05 57° NE 01:22:05 57° NE 01:27:32 10° N
ADEOS 4.5 01:24:11 37° N 01:24:11 37° N 01:27:18 10° N
Cosmos 158 Rocket 4.5 01:25:01 10° NNW 01:29:07 53° NNW 01:29:07 53° NNW
Cosmos 1943 4.5 01:31:55 10° NNW 01:34:50 29° N 01:34:50 29° N
Cosmos 371 Rocket 4.2 01:34:33 10° SW 01:38:12 45° WSW 01:38:12 45° WSW
Cosmos 2263 Rocket 3.2 01:51:08 10° SW 01:56:31 42° WNW 01:57:12 41° NW
USA 281 4.5 01:56:58 10° N 02:02:49 36° NW 02:08:40 10° WSW
SL-12 R/B(2) 4.2 01:56:03 10° SW 02:03:58 84° NW 02:05:05 71° NNE
SL-16 R/B 4.1 02:14:22 10° NW 02:18:50 24° WSW 02:20:06 22° WSW
CZ-4C R/B 3.3 02:14:36 10° NW 02:21:20 65° W 02:21:20 65° W
ACS3 Solar Sail 4.0 03:07:04 21° WNW 03:07:04 21° WNW 03:10:19 10° NW
ATLAS 3B R/B 4.4 08:49:45 30° NE 08:49:45 30° NE 08:56:21 10° E
ATLAS 2AS CENTAUR R/B 4.0 09:09:44 36° NE 09:09:44 36° NE 09:13:42 10° NE
Cosmos 2219 4.4 09:41:42 38° ENE 09:41:42 38° ENE 09:46:25 10° SE
H-2A R/B 3.8 09:42:16 10° NNE 09:44:43 26° NE 09:44:43 26° NE
Cosmos 1980 Rocket 2.5 10:10:37 62° NE 10:10:37 62° NE 10:15:21 10° NNE
Lacrosse 4 Rocket 3.2 10:12:22 29° E 10:12:22 29° E 10:14:50 10° SE
IRS-1D 4.2 10:07:24 10° NNE 10:11:05 46° NE 10:11:05 46° NE
Cosmos 2369 4.2 10:13:11 46° SSE 10:14:27 57° ESE 10:20:00 10° NNE
Atlas Centaur 2 4.0 10:20:59 11° SSE 10:20:59 11° SSE 10:21:16 10° SSE
SL-08 ROCKET BODY 4.3 10:20:37 49° S 10:22:20 85° E 10:28:15 10° N
Cosmos 2242 Rocket 4.4 10:24:24 49° NE 10:24:24 49° NE 10:28:00 10° NNE
Meteor 2-5 Rocket 4.0 10:19:40 10° S 10:25:23 66° E 10:31:00 10° NNE
Cosmos 1697 Rocket 4.0 10:29:44 26° N 10:29:44 26° N 10:32:33 10° NNE
USA 281 3.5 10:26:26 10° SE 10:32:54 65° ENE 10:39:25 10° NNW
Cosmos 1818 3.5 10:34:03 72° NNW 10:34:03 72° NNW 10:39:16 10° NNE
Cosmos 1302 Rocket 3.8 10:34:27 88° WSW 10:34:29 88° WNW 10:39:43 10° NNE
NOSS 3-1 (A) 4.1 10:33:37 50° WNW 10:35:33 62° WSW 10:44:27 10° SSE
ATLAS 3B R/B 2.9 10:37:03 30° NW 10:41:28 89° WSW 10:49:08 10° SSE
Cosmos 1375 Rocket 4.4 10:41:45 51° WSW 10:43:27 71° NW 10:50:01 10° NNE
Cosmos 1484 Rocket 3.3 10:43:46 10° NNE 10:47:12 51° E 10:48:16 36° SSE
Cosmos 2263 Rocket 2.0 10:47:02 47° NW 10:48:41 75° WSW 10:54:16 10° SSE
Cosmos 2315 Rocket 4.0 10:46:45 10° N 10:53:10 89° E 10:59:30 10° S
Cosmos 2082 3.6 10:50:46 30° NNW 10:53:41 85° WSW 10:59:20 10° SSE
BREEZE-M DEB (TANK) 2.9 10:54:05 58° NE 10:54:05 58° NE 10:59:25 10° E
SL-08 RB Rocket 4.3 10:52:33 10° NNE 10:57:06 57° E 11:01:37 10° S
Cosmos 883 Rocket 4.4 10:51:33 10° N 10:57:55 79° W 11:04:11 10° S
ATLAS 2AS CENTAUR R/B 3.4 10:57:11 33° NW 10:58:05 34° NW 11:04:23 10° NNE
Cosmos 2227 Rocket 4.0 11:01:30 15° SSW 11:01:30 15° SSW 11:02:44 10° SSW
USA 59 Rocket 1.4 10:58:39 20° N 11:00:49 35° NE 11:05:33 10° ESE
Cosmos 2344 4.4 10:55:36 10° S 11:03:12 49° ESE 11:10:05 10° NE
SKYMED 2 4.5 10:59:17 10° SSE 11:03:27 49° ENE 11:07:39 10° N
Cosmos 1328 4.3 11:00:33 10° S 11:04:10 54° E 11:07:48 10° NNE
Cosmos 304 Rocket 3.9 11:00:33 17° NNW 11:04:13 74° ENE 11:08:57 10° SSE
Cosmos 2266 Rocket 4.2 11:01:19 10° SSW 11:07:28 48° WNW 11:13:39 10° N
SL-16 R/B 3.0 11:04:03 10° S 11:09:30 52° ESE 11:15:00 10° NE
Gbstr 26 Del rocket 3.1 11:11:15 39° WSW 11:12:57 86° NNW 11:18:22 10° ENE
DELTA 2 R/B (1) 3.8 11:18:49 30° WSW 11:21:28 59° S 11:26:56 10° ESE
SL-8 R/B 3.7 11:21:05 35° W 11:22:55 63° NNW 11:27:39 10° ENE
Cosmos 2221 Rocket 3.9 11:19:01 10° S 11:23:21 67° E 11:27:46 10° NNE
BREEZE-M DEB (TANK) 4.3 11:22:13 26° NW 11:24:33 57° NNE 11:36:19 10° ESE
Cosmos 2219 3.8 11:23:41 28° WNW 11:25:10 33° WSW 11:30:08 10° SSW
H-2A R/B 3.1 11:22:03 10° N 11:25:14 24° NW 11:25:14 24° NW
Cosmos 1655 Rocket 4.1 11:22:17 10° SSW 11:28:28 51° WNW 11:34:39 10° N
NOSS 2-1 (E) 4.1 11:25:58 17° NNW 11:28:57 59° NE 11:34:16 10° SE
ATLAS CENTAUR R/B 3.3 11:36:13 12° NNW 11:36:13 12° NNW 11:37:06 10° N
Cosmos 2333 Rocket 3.6 11:30:38 10° S 11:35:57 42° ESE 11:41:16 10° NE
ARIANE 5 R/B 3.3 11:31:11 10° NNE 11:36:09 55° E 11:41:10 10° S
Sich 1 Rocket 3.5 11:31:53 10° N 11:36:22 88° W 11:40:52 10° S
YAOGAN 11 4.2 11:33:52 10° SSE 11:38:11 76° ENE 11:42:35 10° N
Thor Agena Rocket 4.0 11:34:03 10° N 11:38:47 36° WNW 11:43:27 10° SW
USA 229 DEB 4.0 11:31:43 11° NW 11:39:03 73° WSW 11:47:12 10° SSE
USA 229 4.0 11:31:50 11° NW 11:39:10 73° WSW 11:47:17 10° SSE
Meteor 1-24 Rocket 4.4 11:34:39 10° SW 11:39:21 29° WNW 11:43:58 10° N
Cosmos 2278 3.6 11:34:51 10° SSW 11:40:29 76° WNW 11:46:10 10° NNE
ARGOS 3.4 11:36:00 10° N 11:41:08 44° WNW 11:46:14 10° SW
Cosmos 1378 Rocket 3.7 11:37:34 10° SSW 11:41:51 50° WNW 11:46:08 10° N
Cosmos 1025 Rocket 3.5 11:39:29 10° S 11:43:38 63° E 11:47:52 10° NNE
Cosmos 1674 Rocket 3.5 11:39:47 10° SSW 11:44:01 59° W 11:48:18 10° N
Cosmos 1939 Rocket 4.0 11:42:57 10° NNW 11:45:19 21° WNW 11:45:19 21° WNW
ARIANE 6 FM1 Upper Stage 2.7 11:41:41 10° SW 11:45:51 64° NW 11:50:05 10° NNE
BREEZE-M DEB (TANK) 3.9 11:42:34 18° WNW 11:46:15 35° N 11:48:46 10° ENE
Cosmos 1844 Rocket 3.0 11:42:38 10° NNW 11:48:17 70° ENE 11:53:52 10° SSE
Lacrosse 4 Rocket 2.7 11:48:12 19° W 11:48:49 20° WSW 11:51:49 10° SSW
Cosmos 2322 Rocket 2.6 11:43:18 10° SSW 11:48:54 67° ESE 11:54:31 10° NNE
COSMO-SKYMED 1 2.7 11:47:16 10° S 11:51:28 50° W 11:55:43 10° NNW
Okean 2 Rocket 3.1 11:47:08 10° NNW 11:51:31 56° W 11:55:51 10° S
Cosmos 1980 Rocket 3.5 11:52:26 16° WNW 11:54:22 19° NW 11:58:21 10° N
Cosmos 371 Rocket 4.0 11:50:56 11° NW 11:54:55 32° WSW 11:59:09 10° SSW
